This is the latest recevied weather packets stored in our database for station/object N2XP-3. If no packets are shown the sender has not sent any weather packets the latest 1 day(s).
| Time | Temp. | Humidity | Pressure | Rain* | Wind** | Luminosity | Snow |
|---|---|---|---|---|---|---|---|
| 1778012363 | 28.33° C | 32% | 1005.2 hPa | 0 mm | 2.68 m/s, 246° | - | - |
| 1778012143 | 28.33° C | 32% | 1005.2 hPa | 0 mm | 4.02 m/s, 304° | - | - |
| 1778011844 | 28.33° C | 32% | 1005.2 hPa | 0 mm | 2.68 m/s, 246° | - | - |
| 1778010430 | 28.89° C | 34% | 1005.3 hPa | 0 mm | 4.02 m/s, 170° | - | - |
| 1778010334 | 28.89° C | 34% | 1005.3 hPa | 0 mm | 4.02 m/s, 170° | - | - |
| 1778010033 | 28.89° C | 34% | 1005.3 hPa | 0 mm | 2.68 m/s, 270° | - | - |
| 1778009734 | 28.89° C | 34% | 1005.5 hPa | 0 mm | 2.68 m/s, 243° | - | - |
| 1778009430 | 28.89° C | 33% | 1005.5 hPa | 0 mm | 3.58 m/s, 238° | - | - |
| 1778009127 | 28.89° C | 32% | 1005.4 hPa | 0 mm | 4.02 m/s, 222° | - | - |
| 1778008519 | 29.44° C | 32% | 1005.7 hPa | 0 mm | 3.13 m/s, 271° | - | - |
| 1778008219 | 29.44° C | 34% | 1005.7 hPa | 0 mm | 2.68 m/s, 281° | - | - |
| 1778007681 | 29.44° C | 34% | 1005.8 hPa | 0 mm | 2.24 m/s, 264° | - | - |
| 1778007615 | 29.44° C | 34% | 1005.8 hPa | 0 mm | 2.24 m/s, 264° | - | - |
| 1778007316 | 28.89° C | 33% | 1005.8 hPa | 0 mm | 2.68 m/s, 180° | - | - |
| 1778006709 | 28.89° C | 32% | 1006 hPa | 0 mm | 3.13 m/s, 260° | - | - |
| 1778006109 | 28.89° C | 32% | 1006 hPa | 0 mm | 3.58 m/s, 211° | - | - |
| 1778005807 | 29.44° C | 32% | 1006 hPa | 0 mm | 1.79 m/s, 215° | - | - |
| 1778005507 | 29.44° C | 33% | 1006.3 hPa | 0 mm | 3.58 m/s, 283° | - | - |
| 1778004901 | 29.44° C | 33% | 1006.3 hPa | 0 mm | 4.92 m/s, 218° | - | - |
| 1778004601 | 28.89° C | 36% | 1006.2 hPa | 0 mm | 2.68 m/s, 285° | - | - |
| 1778003996 | 28.89° C | 37% | 1006.4 hPa | 0 mm | 1.79 m/s, 359° | - | - |
| 1778003196 | 28.89° C | 36% | 1006.6 hPa | 0.25 mm | 4.02 m/s, 212° | - | - |
| 1778003196 | 28.89° C | 37% | 1006.6 hPa | 0.25 mm | 4.02 m/s, 314° | - | - |
| 1778003092 | 28.89° C | 37% | 1006.6 hPa | 0.25 mm | 4.02 m/s, 314° | - | - |
| 1778002793 | 28.89° C | 36% | 1006.6 hPa | 0.25 mm | 4.02 m/s, 212° | - | - |
* Rain latest hour (hover to see other rain measurements)
** Current wind speed in m/s (hover to see current wind gust speed)